{"data":{"norad_id":69035,"intl_designator":"2026-101L","name":"STARLINK-37512","alt_names":[],"object_type":"PAYLOAD","status":"ACTIVE","operator":null,"country":"US","launch_date":"2026-05-06","launch_site_code":"AFWTR","launch_vehicle":null,"mission":null,"orbit_class":"UNKNOWN","rcs_meters":null,"size_class":null,"mass_kg":null,"dimensions":null,"purposes":["comms"],"wikipedia_slug":null,"has_3d_model":false,"image_url":null,"decayed_at":null,"tle_current":{"epoch":"2026-05-25T05:07:25.098816Z","epoch_age_seconds":59715,"freshness":"FRESH","line1":"1 69035U 26101L   26145.21348494 -.00800822  00000+0 -83901-2 0  9990","line2":"2 69035  97.2851 359.9626 0001239  75.0121 285.1277 15.66773268  3026","mean_motion":15.66773268,"eccentricity":0.0001239,"inclination_deg":97.2851,"raan_deg":359.9626,"arg_perigee_deg":75.0121,"mean_anomaly_deg":285.1277,"bstar":-0.0083901,"rev_number":302,"period_min":91.908639840286,"perigee_km":367.30781299026,"apogee_km":368.97954134206,"semimajor_km":6746.2806771662,"source":"CELESTRAK","updated_at":"2026-05-25T13:38:22.081403Z"}}}